N7DQ Weather Reports


time (UTC)temp
C
wind
direction
speed
KPH
gust
KPH
rain 1hr
cm
rain 24hr
cm
rain mn
cm
humidity
%
barometer
mb
20260503224005 31 151 1.6 4.8 0.00 0.00 0.00 35 1008.9
20260503223505 31 209 1.6 11.3 0.00 0.00 0.00 37 1009.0
20260503223006 31 199 1.6 11.3 0.00 0.00 0.00 38 1009.1
20260503222505 31 185 3.2 11.3 0.00 0.00 0.00 38 1009.1
20260503222006 31 180 4.8 8.0 0.00 0.00 0.00 37 1009.2
20260503221505 31 195 3.2 4.8 0.00 0.00 0.00 41 1009.3
20260503221005 31 191 3.2 9.7 0.00 0.00 0.00 38 1009.3
20260503220505 31 140 3.2 9.7 0.00 0.00 0.00 33 1009.4
20260503220005 31 74 3.2 8.0 0.00 0.00 0.00 33 1009.4
20260503215507 31 56 3.2 11.3 0.00 0.00 0.00 31 1009.5
20260503194005 28 39 3.2 12.9 0.00 0.00 0.00 46 1011.3
20260503193505 28 72 3.2 12.9 0.00 0.00 0.00 47 1011.3
20260503193005 27 34 3.2 8.0 0.00 0.00 0.00 46 1011.3
20260503192505 27 31 4.8 11.3 0.00 0.00 0.00 47 1011.6
20260503192005 27 56 3.2 11.3 0.00 0.00 0.00 47 1011.5
20260503191505 27 94 4.8 11.3 0.00 0.00 0.00 45 1011.6
20260503191004 26 68 4.8 11.3 0.00 0.00 0.00 46 1011.7
20260503190505 26 105 6.4 11.3 0.00 0.00 0.00 46 1011.7
20260503190007 26 64 4.8 9.7 0.00 0.00 0.00 46 1011.6
20260503185506 26 54 3.2 9.7 0.00 0.00 0.00 46 1011.9
20260503185006 26 66 3.2 8.0 0.00 0.00 0.00 48 1011.9
20260503184507 26 56 3.2 8.0 0.00 0.00 0.00 50 1011.9
20260503173506 22 201 3.2 4.8 0.00 0.00 0.00 61 1012.7
20260503173007 22 223 3.2 4.8 0.00 0.00 0.00 61 1012.7
20260503172505 22 190 3.2 4.8 0.00 0.00 0.00 61 1012.7
20260503172006 22 189 3.2 4.8 0.00 0.00 0.00 61 1012.8
20260503171506 21 201 3.2 4.8 0.00 0.00 0.00 61 1012.8
20260503171006 21 208 3.2 4.8 0.00 0.00 0.00 62 1012.8
20260503170506 21 207 1.6 4.8 0.00 0.00 0.00 64 1012.8
20260503131006 10 231 0.0 1.6 0.00 0.00 0.00 93 1013.2
20260503130506 10 231 0.0 3.2 0.00 0.00 0.00 93 1013.2
20260503110506 11 231 0.0 1.6 0.00 0.00 0.00 92 1013.5
20260503090505 12 259 0.0 1.6 0.00 0.00 0.00 89 1013.6
20260503081505 13 202 0.0 4.8 0.00 0.00 0.00 87 1013.6
20260503081006 13 203 3.2 4.8 0.00 0.00 0.00 87 1013.6
20260503080506 13 191 1.6 4.8 0.00 0.00 0.00 87 1013.7
20260503072506 13 190 0.0 3.2 0.00 0.00 0.00 85 1013.8
20260503072006 14 178 1.6 3.2 0.00 0.00 0.00 85 1013.8
20260503071506 14 35 1.6 4.8 0.00 0.00 0.00 86 1013.8
20260503071006 14 21 1.6 4.8 0.00 0.00 0.00 85 1013.7
20260503070506 14 41 1.6 4.8 0.00 0.00 0.00 84 1013.8
20260503050005 16 314 0.0 1.6 0.00 0.00 0.00 78 1013.8
20260503045505 16 315 0.0 3.2 0.00 0.00 0.00 78 1013.8
20260503045005 16 257 0.0 3.2 0.00 0.00 0.00 77 1013.7
20260503044505 16 288 0.0 1.6 0.00 0.00 0.00 77 1013.6
20260503044005 17 246 0.0 3.2 0.00 0.00 0.00 76 1013.5
20260503043505 17 246 1.6 3.2 0.00 0.00 0.00 76 1013.4
20260503043005 17 275 0.0 3.2 0.00 0.00 0.00 76 1013.4
20260503042505 17 269 1.6 3.2 0.00 0.00 0.00 76 1013.4
20260503042006 17 302 0.0 4.8 0.00 0.00 0.00 75 1013.3
20260503041505 17 308 1.6 4.8 0.00 0.00 0.00 75 1013.3
20260503041005 17 275 0.0 3.2 0.00 0.00 0.00 75 1013.2
20260503040505 17 323 0.0 3.2 0.00 0.00 0.00 74 1013.0
20260503040005 18 355 0.0 3.2 0.00 0.00 0.00 74 1012.9
20260503035506 18 316 0.0 3.2 0.00 0.00 0.00 73 1012.8
20260503035006 18 326 0.0 3.2 0.00 0.00 0.00 73 1012.7
20260503034505 18 328 0.0 1.6 0.00 0.00 0.00 72 1012.6
20260503034005 18 265 0.0 4.8 0.00 0.00 0.00 72 1012.4
20260503033505 18 195 1.6 4.8 0.00 0.00 0.00 72 1012.3
20260503033006 18 220 1.6 4.8 0.00 0.00 0.00 71 1012.2
20260503032505 19 257 1.6 4.8 0.00 0.00 0.00 70 1012.1
20260503032005 19 278 3.2 4.8 0.00 0.00 0.00 70 1011.9
20260503031505 19 250 1.6 3.2 0.00 0.00 0.00 70 1011.9
20260503031007 20 198 1.6 8.0 0.00 0.00 0.00 69 1011.8
20260503030505 20 250 1.6 8.0 0.00 0.00 0.00 69 1011.7
20260503030006 20 254 1.6 8.0 0.00 0.00 0.00 68 1011.6
20260503025505 20 232 1.6 4.8 0.00 0.00 0.00 67 1011.7
20260503025006 20 199 1.6 4.8 0.00 0.00 0.00 67 1011.7
20260503024505 21 207 1.6 4.8 0.00 0.00 0.00 66 1011.7
20260503024005 21 230 3.2 4.8 0.00 0.00 0.00 65 1011.7
20260503023506 21 260 1.6 4.8 0.00 0.00 0.00 65 1011.7
20260503023005 21 261 1.6 11.3 0.00 0.00 0.00 65 1011.7
20260503022506 21 253 3.2 11.3 0.00 0.00 0.00 64 1011.6
20260503022006 22 257 1.6 8.0 0.00 0.00 0.00 64 1011.6
20260503021506 22 235 3.2 8.0 0.00 0.00 0.00 63 1011.7
20260503021006 22 251 1.6 4.8 0.00 0.00 0.00 62 1011.6
20260503020506 23 225 1.6 4.8 0.00 0.00 0.00 61 1011.7
20260503020005 23 260 1.6 4.8 0.00 0.00 0.00 60 1011.6
20260503015505 23 272 1.6 4.8 0.00 0.00 0.00 60 1011.7
20260503015005 23 279 1.6 4.8 0.00 0.00 0.00 59 1011.6
20260503014505 23 296 1.6 11.3 0.00 0.00 0.00 59 1011.7
20260503014005 23 226 3.2 11.3 0.00 0.00 0.00 59 1011.7
20260503013505 24 251 3.2 11.3 0.00 0.00 0.00 58 1011.7
20260503013005 24 271 3.2 11.3 0.00 0.00 0.00 57 1011.8
20260503012504 24 216 3.2 4.8 0.00 0.00 0.00 56 1011.7
20260503012005 24 207 1.6 4.8 0.00 0.00 0.00 55 1011.7
20260503011506 24 210 1.6 4.8 0.00 0.00 0.00 56 1011.6
20260503011005 25 124 1.6 4.8 0.00 0.00 0.00 55 1011.6
20260503010504 25 242 1.6 4.8 0.00 0.00 0.00 55 1011.6
20260503010005 24 293 1.6 4.8 0.00 0.00 0.00 55 1011.6
20260503005505 25 251 1.6 8.0 0.00 0.00 0.00 56 1011.6
20260503004505 25 256 1.6 12.9 0.00 0.00 0.00 56 1011.7
20260503004005 25 237 3.2 12.9 0.00 0.00 0.00 56 1011.7
20260503003505 25 269 3.2 4.8 0.00 0.00 0.00 56 1011.7
20260503003006 25 270 1.6 4.8 0.00 0.00 0.00 57 1011.6
20260503002505 25 223 1.6 8.0 0.00 0.00 0.00 56 1011.6
20260503002006 25 222 1.6 8.0 0.00 0.00 0.00 56 1011.7
20260503001506 25 259 1.6 8.0 0.00 0.00 0.00 57 1011.7
20260503001005 25 242 1.6 4.8 0.00 0.00 0.00 57 1011.7
20260503000505 25 233 1.6 4.8 0.00 0.00 0.00 58 1011.8
20260503000005 24 239 1.6 8.0 0.00 0.00 0.00 59 1011.8
20260502235505 24 262 3.2 8.0 0.00 0.00 0.00 59 1011.8
20260502235006 23 194 1.6 8.0 0.00 0.00 0.00 61 1011.8
20260502234504 23 214 3.2 8.0 0.00 0.00 0.00 64 1011.8
20260502234005 22 216 3.2 4.8 0.00 0.00 0.00 67 1011.9
20260502233505 21 194 1.6 4.8 0.00 0.00 0.00 68 1012.0
20260502233005 22 194 3.2 4.8 0.00 0.00 0.00 69 1012.0
20260502232505 21 216 0.0 4.8 0.00 0.00 0.00 68 1012.3
20260502232005 21 198 1.6 4.8 0.00 0.00 0.00 70 1012.4
20260502231504 21 196 1.6 3.2 0.00 0.00 0.00 71 1012.4
20260502231005 20 187 1.6 3.2 0.00 0.00 0.00 72 1012.4
20260502230505 20 190 1.6 3.2 0.00 0.00 0.00 73 1012.6
20260502230005 20 188 1.6 4.8 0.00 0.00 0.00 70 1012.8
20260502225505 20 175 3.2 4.8 0.00 0.00 0.00 70 1013.0
20260502225005 21 191 3.2 4.8 0.00 0.00 0.00 68 1012.9
20260502224508 21 199 1.6 4.8 0.00 0.00 0.00 66 1013.0